COSMOS 592

Satellite information

Favourite Embed

Satellite Type and Status

PAYLOADIN ORBIT

Key statistics

Satellite COSMOS 592 at a glance.

Uptime

18851

Days in orbit

Revolutions

≈ 12.6

Per day

Orbit

LEO

Low Earth Orbit

Inclination

74.0

Latest

Satellite identification and parameters

Extended collection of information and parameters for COSMOS 592.

Object identification

Identified? True

Debris? False

Object name: COSMOS 592

International designator: 1973-069E

Object number (NORAD): 6849

Object ID (CCSDS): 6849

Country: COMMONWEALTH OF INDEPENDENT STATES (CIS)

Current information (Y/N): Y

RCS size: MEDIUM

Orbital parameters

Period: 113.933 minutes

Inclination: 73.9988 deg

SMA: 7785.024 km

Apoapsis: 1484.275 km

Periapsis: 1329.504 km

RAAN: 162.0496 deg

Eccentricy: 0.0099403

Argument of periapsis: 253.5912 deg

Mean anomaly: 105.4202 deg

Mean motion: 12.63900221 rev/day

Mean motion (dot): 0.00000018 rev/day2

B* drag term: 0.00019075 1/REarth

Two-line elements (TLE)

Creation date: May 12, 2025, 2:31 a.m.

Reference frame: TEME

Reference center: EARTH

Epoch: May 11, 2025, 7:40 p.m. UTC

TLE line 0: 0 COSMOS 592

TLE line 1: 1 06849U 73069E 25131.81992716 .00000018 00000-0 19075-3 0 9991

TLE line 2: 2 06849 73.9988 162.0496 0099403 253.5912 105.4202 12.63900221380958

Live tracking on map

Real-time ground track for satellite COSMOS 592.

In-orbit conjunctions

There are no conjunctions computed for COSMOS 592, at the moment. Check back to stay up to date, as we update our databases every day.

Go to all conjunctions

Associated space launch

Military communications satellites

COSMOS 592 was lifted into orbit during the mission ‘Kosmos-3M | Strela-1M 49-56’, on board a Kosmos-3M space rocket.

The launch took place on Oct. 2, 1973, 9:46 p.m. from 132/2.

For more information about the launch, click the button.

Launch to space Kosmos-3M | Strela-1M 49-56
Kosmos-3M | Strela-1M 49-56

Agency: N/A

Status: Launch Successful

Launch date: Oct. 2, 1973, 9:46 p.m. UTC

Rocket: Kosmos-3M

Launch pad: 132/2

Location: Plesetsk Cosmodrome, Russian Federation

...

Latest news about this satellite

There are no fresh news available about this satellite. Check back as we update our databases every day.


Newsletter sign-up

Weekly statistics, charts and insights to help you stay on top of the space industry.